www.pogodaiklimat.ru

Погода и климат >> Архив погоды >> Россия >> Крым >> Симферополь


АРХИВ ПОГОДЫ в Симферополе

Время (UTC), дата Ветер
(напр.,м/с)
 
Видим.   Явления Облачность Т
(С)
Тd
(С)
f
(%)
Тe
(С)
Тes
(С)
Комфортность P
(гПа)
Po
(гПа)
Тmin
(С)
Tmax
(С)
R
(мм)
R24
(мм)
S
(см)
18 11.12 ЮЗ 5
{10}
10 км 8/0
[Ci fib]
+7.5 +4.5 81 +4 +4 тепло 1021.0 998.8 +9.8
21 11.12 Ю 7-10
{11}
10 км 6/0
[Ci fib]
+8.8 +4.8 76 +5 +5 тепло 1020.1 998.1
00 12.12 ЮЗ 8-12
{12}
10 км 3/0
[Ci fib]
+10.0 +6.9 81 +6 +6 тепло 1019.3 997.4
03 12.12 ЮЗ 9-14
{14}
10 км ясно +10.9 +6.6 75 +7 +7 тепло 1019.0 997.2 +7.2
06 12.12 ЮЗ 9-13
{14}
10 км 10/0
[Ac trans Ci fib]
+11.3 +6.6 73 +8 +8 тепло 1020.0 998.2 +7.3
09 12.12 ЮЗ 13-16
{16}
10 км 10/3 600 м
[Sc Ci fib]
+13.2 +7.6 69 +10 +10 тепло 1019.5 997.8
12 12.12 ЮЗ 11-15
{17}
10 км 10/1 600 м
[Sc Ci fib]
+13.3 +6.9 65 +10 +10 тепло 1018.5 996.9
15 12.12 Ю 7-10
{15}
10 км 5/1 600 м
[Sc Ci fib]
+10.7 +7.9 83 +7 +7 тепло 1019.4 997.5
18 12.12 ЮЗ 6
{10}
10 км ясно +9.5 +7.4 87 +6 +6 тепло 1019.7 997.7 +14.0
21 12.12 Ю 5 10 км ясно +9.3 +7.4 88 +6 +6 тепло 1019.4 997.4
00 13.12 Ю 5 10 км ясно +8.7 +6.3 85 +5 +5 тепло 1019.0 997.0
03 13.12 Ю 5 10 км ясно +7.2 +5.8 91 +3 +3 тепло 1018.5 996.4 +6.9
06 13.12 Ю 5 10 км 1/0
[Ac trans]
+8.9 +7.0 88 +5 +5 тепло 1018.3 996.3 +6.1
09 13.12 ЮЗ 8-12
{12}
10 км 1/0
[Ac trans]
+14.1 +8.3 68 +12 +12 тепло 1017.5 995.9
12 13.12 ЮЗ 8-12
{12}
10 км 3/0
[Ci fib]
+14.1 +8.7 70 +12 +12 тепло 1016.4 994.9
15 13.12 Ю 3
{12}
10 км 6/0
[Ci fib]
+9.1 +8.2 94 +7 +7 тепло 1016.7 994.8
18 13.12 Ю 3 10 км ясно +9.0 +5.2 77 +7 +7 тепло 1016.0 994.1 +15.2
21 13.12 Ю 4 10 км 3/0
[Ci fib]
+4.8 +3.3 90 +1 +1 по сезону 1015.6 993.3
00 14.12 Ю 4 10 км 4/0
[Ci fib]
+7.9 +3.9 76 +5 +5 тепло 1014.2 992.2
03 14.12 Ю 5 10 км 10/0
[Ci fib]
+9.6 +6.3 80 +6 +6 тепло 1013.3 991.5 +4.6
06 14.12 Ю 5 10 км 10/1 600 м
[Sc Ac und]
+11.1 +7.8 80 +8 +8 тепло 1012.5 990.8 +4.6
09 14.12 ЮЗ 7-10
{10}
10 км 10/6 800 м
[Sc Ac und]
+13.0 +8.1 72 +10 +11 тепло 1012.2 990.7
12 14.12 ЮЗ 6
{13}
10 км 10/6 540 м
[Sc Ci sp]
+12.7 +9.9 83 +10 +10 тепло 1011.0 989.5
15 14.12 ЮЗ 4 10 км 8/0
[Ac trans]
+10.4 +9.2 92 +8 +8 тепло 1011.7 990.0
18 14.12 ЮЗ 4 10 км 10/8 480 м
[St Ac und]
+9.7 +9.2 97 +7 +7 тепло 1012.3 990.5 +13.3
21 14.12 Ю 3 3200 м дымка 5/3 300 м
[St Ac trans]
+8.5 +8.4 99 +6 +6 тепло 1012.6 990.7
00 15.12 Ю 3 10 км {туман} 10/0
[Ac und]
+9.0 +7.9 93 +6 +6 тепло 1013.3 991.4
03 15.12 Ю 3 10 км 10/0
[Ac und]
+7.3 +6.6 95 +4 +4 тепло 1013.0 991.0 +7.2
06 15.12 Ю 3 10 км слабый ливневой дождь 10/3 1080 м
[Cb calv Ac und]
+9.2 +4.8 74 +7 +7 тепло 1013.8 991.9 +7.1 0.0
09 15.12 Ю 5 10 км {ливн. осадки} 4/1 1000 м
[Cb calv Ac trans]
+11.6 +9.0 84 +9 +10 тепло 1013.9 992.2
12 15.12 Ю 4 10 км в посл. час ливневой дождь 10/5 660 м
[Cb calv Ac lent]
+11.6 +10.7 94 +9 +9 тепло 1013.6 992.0
15 15.12 Ю 3 4700 м дымка 5/0
[Ac trans]
+8.0 +7.7 98 +5 +5 тепло 1014.7 992.7 0.8
18 15.12 Ю 3 10 км 8/0
[Ci fib]
+6.5 +5.5 93 +3 +3 тепло 1015.4 993.3 +12.3 0.8
21 15.12 ЮВ 4 10 км 10/0
[Ci fib]
+8.0 +5.6 85 +5 +5 тепло 1015.1 993.1
00 16.12 ЮВ 5 10 км 10/0
[Ci sp]
+10.3 +4.9 69 +7 +7 тепло 1014.0 992.2
03 16.12 ЮВ 6 10 км 10/0
[Ac und]
+11.9 +6.2 68 +9 +9 тепло 1012.8 991.2 +6.3
06 16.12 ЮВ 6 10 км 10/0
[Ac trans Ci fib]
+11.4 +5.9 69 +9 +9 тепло 1012.2 990.5 +6.3
09 16.12 Ю 7-10
{11}
10 км 10/0
[Ac und]
+15.5 +5.1 50 +14 +14 тепло 1012.1 990.7
12 16.12 ЮЗ 9-13
{18}
10 км 10/3 1000 м
[Sc Ci fib]
+16.2 +6.9 54 +15 +15 тепло 1010.7 989.4
15 16.12 Ю 5
{13}
10 км 10/0
[Ac trans Ci fib]
+13.4 +5.8 60 +12 +12 тепло 1011.7 990.2
18 16.12 Ю 5 10 км 6/6 1470 м
[Sc]
+12.8 +6.2 64 +11 +11 тепло 1011.9 990.4 +16.8
21 16.12 Ю 7 10 км 10/10 1320 м
[Sc]
+15.2 +6.2 55 +14 +14 тепло 1012.1 990.7
00 17.12 Ю 7-12
{14}
10 км слабый ливневой дождь 10/10 1170 м
[Cb calv]
+12.0 +8.7 80 +9 +9 тепло 1012.6 991.0
03 17.12 ЮЗ 8-12
{13}
10 км в посл. час ливневой дождь 10/4 1000 м
[Cb calv Ac und]
+12.1 +9.5 84 +9 +9 тепло 1012.9 991.3 +10.9 0.3
06 17.12 Ю 5
{11}
10 км слабый дождь {ливн. осадки} 10/4 400 м
[Frnb As op]
+10.7 +10.1 96 +8 +8 тепло 1014.1 992.4 +10.6 0.8
09 17.12 Ю 6 10 км в посл. час дождь 10/0
[Ac As]
+13.0 +10.2 83 +11 +11 тепло 1013.0 991.5
12 17.12 Ю 7-11
{11}
10 км слабый ливневой дождь 10/10 960 м
[Cb calv]
+12.7 +10.2 85 +10 +10 тепло 1012.6 991.1
15 17.12 ЮВ 5
{11}
10 км слабый дождь {ливн. осадки} 10/0
[As op]
+12.1 +10.2 88 +10 +10 тепло 1011.8 990.2 2
18 17.12 В 4 10 км {ливн. осадки, дождь} 10/0
[Ac und]
+11.5 +9.6 88 +9 +9 тепло 1010.8 989.2 +14.8 2
21 17.12 ЮВ 5 10 км в посл. час ливневой дождь 10/3 1000 м
[Cb calv Ac und]
+13.1 +8.4 73 +11 +11 тепло 1009.8 988.3
00 18.12 ЮВ 6 10 км {ливн. осадки} 10/0
[Ac und]
+12.4 +8.7 78 +10 +10 тепло 1007.9 986.4
03 18.12 Ю 7-11
{11}
10 км 10/4 700 м
[Cb calv Ac und]
+13.2 +9.6 79 +11 +11 тепло 1007.6 986.2 +11.0 1
06 18.12 ЮЗ 10-13
{16}
10 км слабый ливневой дождь 10/10 500 м
[Cb calv]
+8.8 +8.4 97 +4 +4 тепло 1011.0 989.2 +8.6 2
09 18.12 ЮЗ 10-13
{15}
10 км слабая морось {ливн. осадки} 10/10 270 м
[St]
+5.9 +4.9 93 -0 -0 по сезону 1014.4 992.3
12 18.12 ЮЗ 7-12
{14}
10 км {ливн. осадки, морось} 10/10 700 м
[Sc]
+5.1 +3.0 86 -0 -0 по сезону 1015.9 993.7
15 18.12 ЮЗ 4
{12}
10 км слабая морось 10/10 480 м
[St]
+4.5 +2.8 89 0 0 по сезону 1017.3 995.0 1

 

Местоположение метеостанции Симферополь (Крым, Россия): широта 45.03 долгота 33.97 высота над уровнем моря 181 м.

В архиве по умолчанию представлена погода в Симферополе за последнюю неделю. Архивные данные за месяц целиком и за предыдущие месяцы, начиная с января 2011 года, Вы можете получить, выбрав интересующий диапазон дат из раскрывающегося списка и нажав кнопку "Ввод!".

Внимание! Время в таблицах - всемирное. Для получения местного времени необходимо прибавить поправку, которая в Симферополе равна 3 ч.

Смотрите также архив погоды в соседних городах и на ближайших метеорологических станциях:

Погода в Белогорске (Крым, Россия) (50 км)
Погода в Евпатории (Крым, Россия) (50 км)
Погода в Алуште (Крым, Россия) (52 км)
Погода в Севастополе (город Севастополь, Россия) (57 км)
Погода в Клепинино (Крым, Россия) (58 км)
Погода в Никитском саду (Крым, Россия) (61 км)
Погода в Ай-Петри (Крым, Россия) (63 км)
Погода в Ялте (Крым, Россия) (63 км)
Погода в Херсонесском Маяке (город Севастополь, Россия) (68 км)
Погода в Стрелковом (Херсонская область, Украина) (74 км)

Пояснения к столбцам:

Ветер - указаны скорость ветра в м/с - средняя за 10 мин, порывы в срок и между сроками (в фигурных скобках) и направление, откуда дует ветер: С - северный, СВ - северо-восточный, В - восточный, ЮВ - юго-восточный, Ю - южный, ЮЗ - юго-западный, З - западный, СЗ - северо-западный.
Видимость - горизонтальная дальность видимости в метрах или километрах. При видимости от 1 до 10 км при отсутствии осадков обычно наблюдается дымка, при ухудшении видимости до 1 км и менее - туман. В сухую погоду видимость может ухудшаться дымом, пылью или мглою.
Явления - указаны атмосферные явления, наблюдавшиеся в срок или в последний час перед сроком; фигурными скобками обозначены явления, наблюдавшиеся между сроками (за 1-3 часа до срока); квадратными скобками обозначены град или гололедные отложения с указанием их диаметра в мм.
Облачность - указаны через наклонную черту общая и нижняя облачность в баллах и высота нижней границы облаков в метрах; квадратными скобками обозначены формы облаков: Ci - перистые, Cs - перисто-слоистые, Cc - перисто-кучевые, Ac - высококучевые, As - высокослоистые, Sc - слоисто-кучевые, Ns - слоисто-дождевые, Cu - кучевые, Cb - кучево-дождевые. Подробнее классификацию облаков см. в Атласе облаков (PDF).
T - Температура воздуха - температура, измеренная на высоте 2 м над землей.
Td - Температура точки росы - температура, при понижении до которой содержащийся в воздухе водяной пар достигнет насыщения.
f - Относительная влажность воздуха - влажноcть воздуха, измеренная на высоте 2 м над землей.
Te - Эффективная температура - температура, которую ощущает одетый по сезону человек в тени. Характеристика душности погоды. При расчете учитывается влияние влажности воздуха и скорости ветра на теплоощущения человека.
Tes - Эффективная температура на солнце - температура, которую ощущает человек, с поправкой на солнечный нагрев. Характеристика знойности погоды. Зависит от высоты солнца над горизонтом, облачности и скорости ветра. Ночью, в пасмурную погоду, а также при ветре 12 м/с и более поправка равна нулю.
P - Атмосферное давление - приведенное к уровню моря атмосферное давление.
Po - Атмосферное давление - измеренное на уровне метеостанции атмосферное давление.
Tmin - Минимальная температура - минимум температуры воздуха на высоте 2 м над землей.
Tmax - Максимальная температура - максимум температуры воздуха на высоте 2 м над землей.
R - Количество осадков - Количество выпавших осадков за период времени, мм. При наведении курсора мыши на число - период времени, за который выпало указанное количество осадков.
R24 - Количество осадков - Количество выпавших осадков за 24 часа, мм.
S - Снежный покров - Высота снежного покрова, см. При наведении курсора мыши на число - состояние снежного покрова и степень покрытия местности в баллах.